カタログに戻る

STARLINK-34936

運用中通信VLEO
NORAD 65898·PAYLOAD·🇺🇸 United States

打ち上げ Oct 7, 2025 から Cape Canaveral Space Force Station

Loading…

次のパス (今後24時間)

TLE

最新Source: CelesTrak SupGP

元期: Sep 15, 2026, 03:49 UTC

1 65898C 25224S   26258.15951389 -.00085668  00000+0 -25321-2 0  2582
2 65898  53.1573 206.9347 0001329  85.6934 294.6135 15.34421134    12

AllMySatでSTARLINK-34936をリアルタイム追跡

Download on the App Store